Location: Kuppenheim
(48.8299°N, 8.2568°E)
Time: 15:36:23
(UTC+00:00)

CBERS-1 - Pass Details

Date: 20 June 2021
Orbit: 770 x 776 km, 98.7° (Epoch: 04 August)

Event Time Altitude Azimuth Distance (km) Brightness Sun altitude
Rises 01:58:17 0° 16° (NNE) 3,268 8.8 -10.4°
Reaches altitude 10° 02:00:38 10° 19° (NNE) 2,337 7.9 -10.2°
Maximum altitude 02:05:46 69° 103° (ESE) 834 4.3 -9.7°
Drops below altitude 10° 02:10:52 10° 187° (S) 2,321 6.0 -9.2°
Enters shadow 02:11:26 - 187° (S) 2,547 6.2 -9.1°
